Regional Weather Roundup
Issued by NWS Midland/Odessa, TX

Home | Current Version | Previous Version | Text Only | Print | Product List | Glossary On
Versions: 1 2 3 4 5 6 7 8 9 10 11 12 13 14 15 16 17 18 19 20 21 22 23 24 25 26 27 28 29 30 31 32 33 34 35 36 37 38 39 40 41 42 43 44 45 46 47 48 49 50
000
ASUS44 KMAF 301010
RWRMAF
MIDLAND AREA WEATHER ROUNDUP
NATIONAL WEATHER SERVICE MIDLAND TX
500 AM CDT SUN APR 30 2017

...IN SOUTHWEST TEXAS AND SOUTHEAST NEW MEXICO...

CITY           SKY/WX    TMP DP  RH WIND       PRES   REMARKS
ALPINE         CLEAR     34  26  72 CALM      30.15R
ANDREWS        FAIR      36  31  82 W9        30.02R WCI  29
ARTESIA        CLEAR     34  34 100 W9        30.05F WCI  26
BIG SPRING     CLEAR     39  32  76 W12       30.01R WCI  31
CARLSBAD       CLEAR     36  31  82 W8        30.06F WCI  30
DRYDEN           N/A     49  30  48 NW18G26   30.02S
FORT STOCKTON  CLEAR     39  33  79 W15       30.07F WCI  31
GUAD PASS      MOCLDY    33  28  81 SW15      30.06F WCI  23
HOBBS          CLEAR     34  32  93 NW13      30.02S WCI  25
MARFA          CLEAR     30  25  81 N7        30.11R WCI  23
MIDLAND AIRPK  CLEAR     40  31  71 W13G18    30.01S WCI  32
MIDLAND INTL   CLEAR     39  30  70 W14       30.00F WCI  31
ODESSA         CLEAR     38  30  73 W12       30.02F WCI  30
PECOS          CLEAR     37  32  84 SW9       30.10S WCI  30
PRESIDIO       FAIR      54  33  45 S6        30.08R
SEMINOLE       CLEAR     36  31  83 W13       30.01R WCI  27
SNYDER         PTCLDY   N/A N/A N/A W13G22    29.93R
WINK           CLEAR     38  34  85 W12       30.04F WCI  30
$$
...OTHER STATIONS IN TEXAS...

CITY           SKY/WX    TMP DP  RH WIND       PRES   REMARKS
ABILENE        MOCLDY    41  34  76 NW15G25   29.87F WCI  33
AMARILLO       LGT SNOW  33  32  96 NW30G45   29.79F FOG     WCI  19
AUSTIN         TSTM      58  51  78 W7        29.84F
BROWNSVILLE    MOCLDY    72  50  45 N16G24    29.83R
CORPUS CHRISTI CLOUDY    65  55  70 N10       29.84R
DALLAS FTW     CLOUDY    53  45  74 W20G28    29.74F
DEL RIO        CLEAR     56  37  49 NW17G28   30.00R
EL PASO        PTCLDY    42  33  70 SE6       30.08R WCI  38
HOUSTON INT    CLOUDY    63  50  62 NW10      29.79F
LUBBOCK        PTCLDY    36  32  85 NW25G31   29.88F WCI  24
SAN ANGELO     MOCLDY    46  32  58 W21G31    29.98R WCI  38
SAN ANTONIO    LGT RAIN  56  50  80 NW7       29.89S
WACO           CLOUDY    53  50  89 W8        29.85R
WICHITA FALLS  NOT AVBL
$$
...OTHER LOCATIONS IN NEW MEXICO...

CITY           SKY/WX    TMP DP  RH WIND       PRES   REMARKS
ALAMOGORDO     PTCLDY    32  32 100 SE3       30.08S
ALBUQUERQUE    CLOUDY    36  35  96 SE5       30.05F WCI  32
CANNON AFB     CLOUDY    34  34  99 NW22G31   29.95R WCI  22
CLOVIS         PTCLDY    34  27  75 NW26G35   29.93S WCI  21
HOLLOMAN AFB   CLEAR     35  33  90 CALM      30.11R
ROSWELL        MOCLDY    36  31  82 W6          N/A  WCI  31
RUIDOSO        CLOUDY    28  25  86 NW14      30.03F WCI  17
SANTA FE       CLOUDY    31  31 100 NE3       30.00F
TRUTH OR CONSE CLEAR     35  31  85 SW6       30.07S WCI  30
TUCUMCARI      CLOUDY    36  29  75 NW17      29.95F WCI  26
$$




USA.gov is the U.S. government's official web portal to all federal, state and local government web resources and services.